Home   Weather   Moncton   Past weeks

Flag for Canada Past Weather in Moncton, New Brunswick, Canada — Yesterday and Last 2 Weeks

39 °F

Broken clouds.

Feels Like: 32 °F
Forecast: 33 / 44 °F
Wind: 12 mph from Southwest

Location: Moncton

Current Time: Oct 25, 2016 at 11:01:21 AM

Latest Report: Oct 25, 2016 at 10:00 AM

Visibility: 15 mi

Pressure: 29.76 "Hg

Humidity: 75%

Dew Point: 32 °F

Location of MonctonLocation

Past Weather in Moncton — Graph


Moncton Temperature Yesterday

Maximum temperature yesterday: 46 °F (at 11:00 AM)
Minimum temperature yesterday: 39 °F (at 3:00 AM)
Average temperature yesterday: 43 °F

High & Low Weather Summary for the Past Weeks

High70 °F (Oct 19, 2:00 PM)100% (Oct 12, 6:00 AM)30.44 "Hg (Oct 12, 6:00 AM)
Low32 °F (Oct 15, 7:00 AM)44% (Oct 14, 4:00 PM)29.12 "Hg (Oct 22, 6:00 PM)
Average50 °F77%29.93 "Hg
* Reported Oct 10 10:00 AM — Oct 25 10:00 AM, Moncton, Weather by CustomWeather, © 2016

Note: Actual official high and low records may vary slightly from our data, if they occured in-between our weather recording intervals... More about our weather records


Moncton Weather History for the Previous 24 Hours

Scroll right to see more
Time TempWeatherWind HumidityBarometerVisibility
10:00 AM
Tue, Oct 25
39 °FBroken clouds.12 mph75%29.76 "Hg15 mi
9:00 AM36 °FPartly sunny.16 mph87%29.76 "Hg15 mi
8:00 AM34 °FBroken clouds.10 mph87%29.74 "Hg15 mi
7:00 AM34 °FOvercast.12 mph87%29.72 "Hg15 mi
6:00 AM34 °FLight snow. Partly cloudy.12 mph87%29.71 "Hg15 mi
5:00 AM36 °FLight snow. Mostly cloudy.14 mph81%29.70 "Hg15 mi
4:00 AM36 °FPassing clouds.14 mph75%29.69 "Hg15 mi
3:00 AM36 °FPassing clouds.10 mph75%29.69 "Hg15 mi
2:00 AM37 °FPassing clouds.13 mph75%29.69 "Hg15 mi
1:00 AM37 °FPassing clouds.15 mph75%29.68 "Hg15 mi
12:00 AM37 °FPassing clouds.15 mph70%29.67 "Hg15 mi
11:00 PM
Mon, Oct 24
39 °FPassing clouds.12 mph65%29.67 "Hg15 mi
10:00 PM41 °FPassing clouds.14 mph61%29.67 "Hg15 mi
9:00 PM41 °FPassing clouds.12 mph66%29.64 "Hg15 mi
8:00 PM41 °FOvercast.10 mph66%29.63 "Hg15 mi
7:00 PM41 °FPassing clouds.10 mph66%29.61 "Hg15 mi
6:00 PM43 °FPartly sunny.15 mph61%29.59 "Hg15 mi
5:00 PM41 °FSprinkles. Partly sunny.14 mph76%29.59 "Hg15 mi
4:00 PM45 °FSprinkles. Partly sunny.24 mph57%29.55 "Hg15 mi
3:55 PM45 °FSprinkles. Partly sunny.18 mph57%29.55 "Hg15 mi
3:00 PM46 °FBroken clouds.16 mph57%29.54 "Hg15 mi
2:00 PM46 °FPartly sunny.22 mph53%29.54 "Hg15 mi
1:00 PM46 °FPartly sunny.16 mph57%29.53 "Hg15 mi
12:00 PM46 °FPartly sunny.22 mph57%29.54 "Hg15 mi
11:00 AM46 °FPartly sunny.21 mph57%29.55 "Hg15 mi
Weather by CustomWeather, © 2016

See weather overviewHow to use our weather pages